• In Deutschland
  • Länderverzeichnis
  • Für 7 Tage
  • Wassertemperatur
  • Satellitenkarten
  • Wetterkarte
  • Widgets
  • user-avatar
    Anmelden

    Stündliche Wetter Sumgayit

    Heute, 24 August, Donnerstag

    Zeit Temperatur Niederschläge Wind Luftdruck Luftfeuchtigkeit
    00:00 +29°C° 0 mm 3 m/S 737 mmHg 27%
    01:00 +29°C° 0 mm 4 m/S 738 mmHg 30%
    02:00 +29°C° 0 mm 4 m/S 738 mmHg 32%
    03:00 +29°C° 0 mm 5 m/S 738 mmHg 35%
    04:00 +28°C° 0 mm 6 m/S 739 mmHg 37%
    05:00 +28°C° 0 mm 6 m/S 739 mmHg 39%
    06:00 +28°C° 0 mm 7 m/S 739 mmHg 42%
    07:00 +29°C° 0 mm 7 m/S 740 mmHg 39%
    08:00 +30°C° 0 mm 7 m/S 740 mmHg 37%
    09:00 +32°C° 0 mm 8 m/S 740 mmHg 35%
    10:00 +33°C° 0 mm 8 m/S 740 mmHg 34%
    11:00 +33°C° 0 mm 8 m/S 740 mmHg 33%
    12:00 +34°C° 0 mm 7 m/S 740 mmHg 33%
    13:00 +34°C° 0 mm 7 m/S 740 mmHg 32%
    14:00 +34°C° 0 mm 7 m/S 740 mmHg 31%
    15:00 +34°C° 0 mm 7 m/S 740 mmHg 31%
    16:00 +33°C° 0 mm 6 m/S 740 mmHg 31%
    17:00 +32°C° 0 mm 6 m/S 740 mmHg 32%
    18:00 +32°C° 0 mm 5 m/S 739 mmHg 32%
    19:00 +30°C° 0 mm 5 m/S 740 mmHg 34%
    20:00 +29°C° 0 mm 5 m/S 740 mmHg 36%
    21:00 +29°C° 0 mm 5 m/S 740 mmHg 38%
    22:00 +28°C° 0 mm 5 m/S 740 mmHg 41%
    23:00 +28°C° 0 mm 5 m/S 740 mmHg 44%

    Morgen, 25 August, Freitag

    Zeit Temperatur Niederschläge Wind Luftdruck Luftfeuchtigkeit
    00:00 +27°C° 0 mm 5 m/S 740 mmHg 47%
    01:00 +27°C° 0 mm 5 m/S 740 mmHg 47%
    02:00 +27°C° 0 mm 5 m/S 740 mmHg 47%
    03:00 +26°C° 0 mm 5 m/S 740 mmHg 46%
    04:00 +26°C° 0 mm 5 m/S 740 mmHg 45%
    05:00 +26°C° 0 mm 6 m/S 740 mmHg 45%
    06:00 +26°C° 0 mm 6 m/S 740 mmHg 44%
    07:00 +28°C° 0 mm 6 m/S 741 mmHg 38%
    08:00 +30°C° 0 mm 7 m/S 741 mmHg 32%
    09:00 +32°C° 0 mm 7 m/S 741 mmHg 26%
    10:00 +33°C° 0 mm 7 m/S 741 mmHg 26%
    11:00 +34°C° 0 mm 8 m/S 741 mmHg 25%
    12:00 +35°C° 0 mm 8 m/S 741 mmHg 24%
    13:00 +34°C° 0 mm 8 m/S 741 mmHg 26%
    14:00 +34°C° 0 mm 9 m/S 740 mmHg 28%
    15:00 +34°C° 0 mm 9 m/S 740 mmHg 30%
    16:00 +33°C° 0 mm 9 m/S 740 mmHg 34%
    17:00 +32°C° 0 mm 8 m/S 740 mmHg 37%
    18:00 +31°C° 0 mm 8 m/S 740 mmHg 40%
    19:00 +29°C° 0 mm 8 m/S 740 mmHg 41%
    20:00 +29°C° 0 mm 8 m/S 740 mmHg 42%
    21:00 +28°C° 0 mm 7 m/S 741 mmHg 42%
    22:00 +28°C° 0 mm 7 m/S 741 mmHg 42%
    23:00 +28°C° 0 mm 7 m/S 740 mmHg 41%

    übermorgen, 26 August, Samstag

    Zeit Temperatur Niederschläge Wind Luftdruck Luftfeuchtigkeit
    00:00 +28°C° 0 mm 7 m/S 740 mmHg 40%
    01:00 +27°C° 0 mm 6 m/S 740 mmHg 41%
    02:00 +27°C° 0 mm 6 m/S 740 mmHg 42%
    03:00 +27°C° 0 mm 6 m/S 740 mmHg 43%
    04:00 +26°C° 0 mm 6 m/S 740 mmHg 46%
    05:00 +26°C° 0 mm 6 m/S 740 mmHg 48%
    06:00 +26°C° 0 mm 6 m/S 741 mmHg 50%
    07:00 +28°C° 0 mm 7 m/S 741 mmHg 47%
    08:00 +29°C° 0 mm 7 m/S 741 mmHg 45%
    09:00 +31°C° 0 mm 8 m/S 741 mmHg 42%
    10:00 +32°C° 0 mm 8 m/S 741 mmHg 40%
    11:00 +33°C° 0 mm 8 m/S 741 mmHg 38%
    12:00 +34°C° 0 mm 8 m/S 740 mmHg 37%
    13:00 +33°C° 0 mm 9 m/S 740 mmHg 38%
    14:00 +33°C° 0 mm 9 m/S 740 mmHg 40%
    15:00 +33°C° 0 mm 10 m/S 739 mmHg 41%
    16:00 +32°C° 0 mm 10 m/S 739 mmHg 45%
    17:00 +31°C° 0 mm 10 m/S 739 mmHg 49%
    18:00 +29°C° 0 mm 10 m/S 739 mmHg 53%
    19:00 +29°C° 0 mm 10 m/S 740 mmHg 54%
    20:00 +28°C° 0 mm 10 m/S 740 mmHg 55%
    21:00 +28°C° 0 mm 10 m/S 740 mmHg 56%
    22:00 +27°C° 0 mm 9 m/S 740 mmHg 55%
    23:00 +27°C° 0 mm 8 m/S 740 mmHg 55%

    27 August, Sonntag

    Zeit Temperatur Niederschläge Wind Luftdruck Luftfeuchtigkeit
    00:00 +27°C° 0 mm 8 m/S 739 mmHg 54%
    01:00 +26°C° 0 mm 7 m/S 739 mmHg 56%
    02:00 +26°C° 0 mm 7 m/S 739 mmHg 57%
    03:00 +24°C° 0 mm 6 m/S 739 mmHg 58%
    04:00 +24°C° 0 mm 6 m/S 739 mmHg 57%
    05:00 +24°C° 0 mm 6 m/S 739 mmHg 56%
    06:00 +24°C° 0 mm 6 m/S 739 mmHg 55%
    07:00 +27°C° 0 mm 6 m/S 740 mmHg 50%
    08:00 +28°C° 0 mm 6 m/S 740 mmHg 44%
    09:00 +30°C° 0 mm 6 m/S 740 mmHg 39%
    10:00 +30°C° 0 mm 7 m/S 740 mmHg 37%
    11:00 +32°C° 0 mm 7 m/S 739 mmHg 36%
    12:00 +33°C° 0 mm 7 m/S 739 mmHg 34%
    13:00 +33°C° 0 mm 7 m/S 739 mmHg 36%
    14:00 +33°C° 0 mm 7 m/S 739 mmHg 38%
    15:00 +33°C° 0 mm 7 m/S 738 mmHg 39%
    16:00 +32°C° 0 mm 7 m/S 738 mmHg 42%
    17:00 +30°C° 0 mm 7 m/S 738 mmHg 44%
    18:00 +29°C° 0 mm 7 m/S 738 mmHg 47%
    19:00 +29°C° 0 mm 7 m/S 739 mmHg 48%
    20:00 +28°C° 0 mm 7 m/S 739 mmHg 48%
    21:00 +28°C° 0 mm 7 m/S 739 mmHg 49%
    22:00 +27°C° 0 mm 7 m/S 739 mmHg 48%
    23:00 +27°C° 0 mm 7 m/S 739 mmHg 48%

    28 August, Montag

    Zeit Temperatur Niederschläge Wind Luftdruck Luftfeuchtigkeit
    00:00 +27°C° 0 mm 6 m/S 739 mmHg 47%
    01:00 +27°C° 0 mm 6 m/S 738 mmHg 47%
    02:00 +26°C° 0 mm 6 m/S 738 mmHg 48%
    03:00 +26°C° 0 mm 5 m/S 738 mmHg 48%
    04:00 +26°C° 0 mm 5 m/S 738 mmHg 47%
    05:00 +26°C° 0 mm 5 m/S 739 mmHg 47%
    06:00 +26°C° 0 mm 5 m/S 739 mmHg 46%
    07:00 +27°C° 0 mm 5 m/S 739 mmHg 42%
    08:00 +28°C° 0 mm 5 m/S 739 mmHg 39%
    09:00 +30°C° 0 mm 5 m/S 739 mmHg 35%
    10:00 +30°C° 0 mm 5 m/S 739 mmHg 33%
    11:00 +32°C° 0 mm 5 m/S 739 mmHg 32%
    12:00 +33°C° 0 mm 5 m/S 738 mmHg 30%
    13:00 +33°C° 0 mm 5 m/S 738 mmHg 30%
    14:00 +33°C° 0 mm 6 m/S 738 mmHg 31%
    15:00 +33°C° 0 mm 6 m/S 737 mmHg 31%
    16:00 +32°C° 0 mm 6 m/S 737 mmHg 33%
    17:00 +30°C° 0 mm 5 m/S 737 mmHg 35%
    18:00 +30°C° 0 mm 5 m/S 737 mmHg 38%
    19:00 +29°C° 0 mm 5 m/S 737 mmHg 39%
    20:00 +28°C° 0 mm 4 m/S 737 mmHg 41%
    21:00 +28°C° 0 mm 4 m/S 738 mmHg 43%
    22:00 +27°C° 0 mm 4 m/S 737 mmHg 43%
    23:00 +27°C° 0 mm 3 m/S 737 mmHg 44%

    29 August, Dienstag

    Zeit Temperatur Niederschläge Wind Luftdruck Luftfeuchtigkeit
    00:00 +27°C° 0 mm 3 m/S 737 mmHg 44%
    01:00 +26°C° 0 mm 3 m/S 737 mmHg 45%
    02:00 +26°C° 0 mm 3 m/S 737 mmHg 46%
    03:00 +26°C° 0 mm 2 m/S 737 mmHg 47%
    04:00 +26°C° 0 mm 2 m/S 737 mmHg 46%
    05:00 +26°C° 0 mm 2 m/S 737 mmHg 45%
    06:00 +26°C° 0 mm 2 m/S 737 mmHg 44%
    07:00 +27°C° 0 mm 2 m/S 737 mmHg 40%
    08:00 +29°C° 0 mm 2 m/S 737 mmHg 36%
    09:00 +30°C° 0 mm 1 m/S 737 mmHg 32%
    10:00 +31°C° 0 mm 2 m/S 737 mmHg 30%
    11:00 +32°C° 0 mm 2 m/S 736 mmHg 28%
    12:00 +34°C° 0 mm 3 m/S 736 mmHg 26%
    13:00 +34°C° 0 mm 3 m/S 736 mmHg 27%
    14:00 +35°C° 0 mm 4 m/S 735 mmHg 27%
    15:00 +35°C° 0 mm 5 m/S 735 mmHg 27%
    16:00 +34°C° 0 mm 4 m/S 735 mmHg 30%
    17:00 +33°C° 0 mm 4 m/S 734 mmHg 34%
    18:00 +32°C° 0 mm 4 m/S 734 mmHg 37%
    19:00 +30°C° 0 mm 4 m/S 734 mmHg 41%
    20:00 +29°C° 0 mm 3 m/S 734 mmHg 45%
    21:00 +29°C° 0 mm 2 m/S 734 mmHg 49%
    22:00 +28°C° 0 mm 2 m/S 734 mmHg 50%
    23:00 +28°C° 0 mm 2 m/S 734 mmHg 52%
    Mehr zeigen